Location: downtown San Diego
(32.7310°N, 117.1990°W)
Time: 12:34:50
(UTC-07:00)

Atlas 2A Centaur Rocket - Pass Details

Date: 14 June 2018
Orbit: 264 x 19763 km, 27.0° (Epoch: 24 June)

Event Time Altitude Azimuth Distance (km) Brightness Sun altitude
Rises 19:40:09 0° 255° (WSW) 2,856 6.3 2.5°
Reaches altitude 10° 19:41:31 10° 251° (WSW) 2,307 5.8 2.2°
Maximum altitude 19:46:28 62° 170° (S) 1,706 4.2 1.3°
Drops below altitude 10° 20:14:58 10° 96° (E) 11,306 7.9 -3.9°
Sets 20:41:06 0° 97° (E) 17,391 8.8 -8.5°
